Погода в Макове

Украина / Хмельницкая область     48°47′16″N   26°41′40″E
темп.,
°C
ветер,
м/с
пор.,
м/с
влажн.,
%
обл.,
%
осадки,
мм/ч
давл.,
гПа
погр.,
м
25 февраля, чт
чт2523:00+3сз359995 0.0 103599
02:00+4зсз2310097 0.0 103428
05:00+4з23100100 0.0 103331
08:00+3з119998 0.0 103323
11:00+5ююз2499100 0.0 1033181
14:00+7юз349392 0.0 1031197
17:00+6з239094 0.0 103035
20:00+4зсз238670 0.0 103022
26 февраля, пт
пт2623:00+4з22850 0.0 103022
02:00+3юз11860 0.0 102922
05:00+3зюз22890 0.0 102822
08:00+4з23810 0.0 102737
11:00+8зсз48690 0.0 1026305
14:00+12зсз59660 0.0 1024555
17:00+10зсз36790 0.0 1022142
20:00+7зсз34890 0.0 102373
27 февраля, сб
сб2723:00+6з489239 0.0 1022184
02:00+6ссз5118870 0.9 1023570
05:00+5зсз51284100 0.0 1022756
08:00+4зсз61284100 0.1 1022999
11:00+4сз71184100 0.1 1022957
14:00+5сз81272100 0.4 10211258
17:00+4сз81472100 0.2 10211268
20:00+3сз8157795 0.3 1023976
28 февраля, вс
вс2823:00+2ссз8139688 0.4 1024884
02:00+1сз6118963 0.5 1026451
05:000ссз5109655 0.1 1026531
08:000ссз599077 0.4 1028630
11:00+2ссз697299 0.1 10291017
14:00+1сз797599 0.1 10291011
17:00+1сз61082100 0.1 1029910
20:000сз5983100 0.1 1030682
1 марта, пн
пн123:000сз4986100 0.0 1031378
02:00−1сз388798 0.0 1032292
05:00−2ссз379138 0.0 1033232
08:00−1ссз368726 0.0 1034342
11:00+3с46650 0.0 1035854
14:00+5ссз456113 0.0 10361037
17:00+4ссз466838 0.0 1035823
20:00+2ссз477761 0.0 1037556